Location: Ku?niki
(51.4449°N, 17.8974°E)
Time: 03:40:26
(UTC+00:00)

COSMO-SKYMED 1 - Pass Details

Date: 18 September 2020
Orbit: 621 x 623 km, 97.9° (Epoch: 22 October)

Event Time Altitude Azimuth Distance (km) Brightness Sun altitude
Rises 17:29:55 0° 11° (N) 2,918 6.0 -6.2°
Reaches altitude 10° 17:32:09 10° 7° (N) 2,007 5.2 -6.6°
Maximum altitude 17:36:25 56° 290° (WNW) 744 3.4 -7.2°
Drops below altitude 10° 17:40:39 10° 212° (SSW) 1,990 5.4 -7.9°
Sets 17:42:51 0° 208° (SSW) 2,892 6.2 -8.2°
